QPF
0.00 0.00 0.00 0.00 0.00 0.00 0.00 0.00 0.00 0.00 0.00 0.00 0.00 0.00 0.00 0.00 0.00 0.00 0.00 0.00 0.00 0.01 0.05 0.06 0.05 0.04 0.04 0.03 0.02 0.02 0.01 0.01 0.02 0.03 0.03 0.04 0.06 0.10 0.13 0.11 0.06 0.01 0.00
0.00 0.00 0.00 0.00 0.00 0.00 0.00 0.00 0.00 0.00 0.00 0.00 0.00 0.01 0.00 0.00 0.00 0.00 0.00 0.00 0.00 0.01 0.02 0.04 0.05 0.06 0.06 0.05 0.04 0.03 0.02 0.02 0.02 0.02 0.03 0.03 0.05 0.06 0.09 0.09 0.05 0.01 0.00
0.00 0.00 0.00 0.00 0.00 0.00 0.00 0.00 0.00 0.00 0.00 0.01 0.01 0.01 0.00 0.00 0.00 0.00 0.00 0.00 0.00 0.01 0.02 0.03 0.04 0.05 0.05 0.05 0.04 0.03 0.02 0.02 0.01 0.01 0.01 0.02 0.04 0.05 0.07 0.09 0.06 0.02 0.00
0.02 0.01 0.01 0.01 0.01 0.00 0.00 0.00 0.00 0.01 0.01 0.02 0.01 0.01 0.01 0.01 0.00 0.01 0.00 0.00 0.00 0.00 0.01 0.02 0.04 0.04 0.05 0.04 0.04 0.03 0.02 0.02 0.02 0.01 0.02 0.02 0.03 0.05 0.08 0.09 0.07 0.02 0.01
0.04 0.03 0.01 0.01 0.00 0.01 0.01 0.01 0.01 0.02 0.02 0.02 0.04 0.03 0.02 0.01 0.01 0.01 0.01 0.01 0.01 0.01 0.00 0.00 0.01 0.03 0.04 0.04 0.04 0.04 0.03 0.03 0.02 0.02 0.02 0.03 0.04 0.07 0.11 0.12 0.08 0.03 0.01
0.06 0.05 0.03 0.02 0.01 0.01 0.01 0.01 0.01 0.02 0.02 0.03 0.04 0.03 0.02 0.01 0.00 0.01 0.01 0.02 0.01 0.01 0.01 0.01 0.01 0.01 0.02 0.03 0.04 0.05 0.04 0.03 0.02 0.02 0.03 0.03 0.03 0.06 0.11 0.12 0.08 0.04 0.02
0.08 0.08 0.07 0.04 0.02 0.01 0.01 0.01 0.01 0.01 0.01 0.03 0.04 0.02 0.01 0.00 0.00 0.00 0.01 0.01 0.02 0.02 0.02 0.02 0.02 0.01 0.01 0.01 0.01 0.03 0.05 0.04 0.03 0.02 0.02 0.02 0.02 0.03 0.05 0.09 0.07 0.04 0.04
0.11 0.10 0.07 0.04 0.03 0.01 0.01 0.01 0.01 0.01 0.01 0.03 0.05 0.03 0.01 0.00 0.00 0.00 0.00 0.01 0.02 0.02 0.03 0.04 0.04 0.02 0.02 0.01 0.00 0.00 0.01 0.03 0.04 0.03 0.02 0.02 0.02 0.02 0.03 0.07 0.06 0.05 0.05
0.13 0.11 0.07 0.04 0.02 0.01 0.00 0.00 0.01 0.01 0.01 0.02 0.06 0.09 0.04 0.01 0.00 0.00 0.00 0.01 0.01 0.02 0.05 0.07 0.06 0.04 0.02 0.01 0.00 0.00 0.00 0.00 0.01 0.02 0.02 0.02 0.01 0.01 0.02 0.05 0.07 0.06 0.07
0.11 0.06 0.03 0.02 0.01 0.00 0.00 0.00 0.00 0.01 0.03 0.02 0.04 0.08 0.10 0.06 0.03 0.01 0.00 0.01 0.01 0.02 0.04 0.06 0.07 0.05 0.03 0.02 0.01 0.01 0.00 0.00 0.00 0.01 0.01 0.01 0.01 0.01 0.02 0.05 0.10 0.11 0.09
0.06 0.03 0.01 0.01 0.00 0.00 0.00 0.00 0.01 0.02 0.04 0.04 0.05 0.07 0.10 0.11 0.10 0.06 0.02 0.02 0.02 0.02 0.02 0.03 0.05 0.04 0.03 0.02 0.02 0.01 0.01 0.00 0.00 0.00 0.00 0.00 0.00 0.01 0.02 0.06 0.13 0.15 0.13
0.02 0.01 0.00 0.00 0.00 0.00 0.00 0.00 0.01 0.02 0.03 0.06 0.08 0.10 0.11 0.11 0.11 0.11 0.07 0.05 0.05 0.04 0.03 0.02 0.02 0.03 0.03 0.04 0.03 0.03 0.02 0.01 0.00 0.00 0.00 0.00 0.00 0.00 0.02 0.06 0.13 0.17 0.18
0.01 0.00 0.00 0.00 0.00 0.00 0.00 0.00 0.01 0.01 0.03 0.05 0.08 0.11 0.14 0.15 0.14 0.13 0.10 0.07 0.06 0.06 0.04 0.03 0.02 0.03 0.05 0.06 0.05 0.05 0.03 0.01 0.00 0.00 0.00 0.00 0.00 0.00 0.02 0.05 0.11 0.17 0.20
0.00 0.00 0.00 0.00 0.00 0.00 0.00 0.00 0.01 0.02 0.04 0.06 0.09 0.13 0.16 0.19 0.19 0.17 0.15 0.13 0.11 0.11 0.09 0.06 0.04 0.03 0.04 0.05 0.05 0.04 0.02 0.02 0.01 0.00 0.00 0.00 0.00 0.01 0.02 0.04 0.09 0.14 0.18
0.00 0.00 0.00 0.00 0.00 0.00 0.00 0.01 0.02 0.04 0.07 0.09 0.11 0.15 0.17 0.19 0.19 0.19 0.20 0.21 0.20 0.19 0.14 0.09 0.06 0.05 0.05 0.05 0.04 0.03 0.03 0.01 0.00 0.00 0.00 0.00 0.00 0.01 0.02 0.04 0.08 0.10 0.12
0.00 0.00 0.00 0.00 0.00 0.00 0.00 0.01 0.02 0.03 0.06 0.10 0.15 0.20 0.22 0.24 0.24 0.24 0.24 0.23 0.22 0.20 0.16 0.09 0.06 0.05 0.05 0.05 0.05 0.04 0.03 0.02 0.00 0.00 0.00 0.00 0.00 0.01 0.03 0.05 0.07 0.08 0.07
0.00 0.00 0.00 0.00 0.00 0.00 0.00 0.00 0.00 0.01 0.04 0.06 0.10 0.14 0.19 0.23 0.24 0.25 0.24 0.22 0.21 0.18 0.13 0.08 0.05 0.05 0.05 0.06 0.06 0.06 0.04 0.02 0.01 0.00 0.00 0.01 0.02 0.03 0.04 0.05 0.06 0.05 0.04
0.00 0.00 0.00 0.00 0.00 0.00 0.00 0.00 0.00 0.01 0.02 0.03 0.06 0.09 0.12 0.15 0.16 0.16 0.16 0.17 0.16 0.15 0.11 0.08 0.05 0.04 0.05 0.07 0.10 0.10 0.07 0.03 0.02 0.01 0.01 0.01 0.01 0.03 0.04 0.05 0.04 0.03 0.02
0.00 0.00 0.00 0.00 0.00 0.00 0.00 0.00 0.00 0.00 0.01 0.01 0.02 0.04 0.05 0.06 0.07 0.06 0.05 0.05 0.06 0.06 0.06 0.05 0.05 0.04 0.05 0.07 0.11 0.11 0.09 0.06 0.03 0.01 0.01 0.01 0.01 0.01 0.02 0.03 0.03 0.02 0.01
0.00 0.00 0.00 0.00 0.00 0.00 0.00 0.00 0.00 0.00 0.00 0.00 0.01 0.01 0.01 0.02 0.02 0.01 0.01 0.01 0.02 0.03 0.04 0.04 0.04 0.04 0.07 0.09 0.13 0.14 0.12 0.08 0.05 0.02 0.02 0.01 0.01 0.00 0.00 0.00 0.01 0.01 0.00
0.00 0.00 0.00 0.00 0.00 0.00 0.00 0.00 0.00 0.00 0.00 0.00 0.00 0.00 0.00 0.00 0.00 0.00 0.00 0.00 0.00 0.01 0.01 0.02 0.02 0.03 0.05 0.08 0.12 0.15 0.15 0.13 0.08 0.05 0.03 0.02 0.01 0.00 0.00 0.00 0.00 0.00 0.00
0.00 0.00 0.00 0.00 0.00 0.00 0.00 0.00 0.00 0.00 0.00 0.00 0.00 0.00 0.00 0.00 0.00 0.00 0.00 0.00 0.00 0.00 0.00 0.00 0.01 0.02 0.02 0.04 0.08 0.12 0.17 0.17 0.15 0.10 0.06 0.04 0.02 0.02 0.02 0.01 0.01 0.00 0.00
0.00 0.00 0.00 0.00 0.00 0.00 0.00 0.00 0.00 0.00 0.00 0.00 0.00 0.00 0.00 0.00 0.00 0.00 0.00 0.00 0.00 0.00 0.00 0.00 0.00 0.01 0.02 0.04 0.08 0.15 0.21 0.25 0.31 0.32 0.23 0.13 0.07 0.04 0.03 0.02 0.02 0.02 0.01
0.00 0.00 0.00 0.00 0.00 0.00 0.00 0.00 0.00 0.00 0.00 0.00 0.00 0.00 0.00 0.00 0.00 0.00 0.00 0.00 0.00 0.00 0.00 0.00 0.00 0.00 0.01 0.03 0.07 0.13 0.22 0.30 0.36 0.38 0.36 0.31 0.20 0.11 0.06 0.04 0.04 0.03 0.02
0.00 0.00 0.00 0.00 0.00 0.00 0.00 0.00 0.00 0.00 0.00 0.00 0.00 0.00 0.00 0.00 0.00 0.00 0.00 0.00 0.00 0.00 0.00 0.00 0.00 0.00 0.00 0.01 0.02 0.05 0.11 0.20 0.31 0.39 0.37 0.30 0.24 0.16 0.10 0.06 0.05 0.04 0.03
0.00 0.00 0.00 0.00 0.00 0.00 0.00 0.00 0.00 0.00 0.00 0.00 0.00 0.00 0.00 0.00 0.00 0.00 0.00 0.00 0.00 0.00 0.00 0.00 0.00 0.00 0.00 0.00 0.00 0.01 0.02 0.05 0.10 0.19 0.27 0.28 0.22 0.16 0.12 0.08 0.06 0.04 0.04
MSLP
1015.55 1015.59 1015.56 1015.47 1015.36 1015.25 1015.16 1015.11 1015.10 1015.10 1015.11 1015.10 1015.05 1014.95 1014.83 1014.67 1014.50 1014.34 1014.18 1014.04 1013.92 1013.83 1013.75 1013.71 1013.70 1013.72 1013.79 1013.90 1014.03 1014.18 1014.34 1014.49 1014.63 1014.77 1014.90 1015.05 1015.23 1015.45 1015.73 1016.06 1016.43 1016.83 1017.23
1015.19 1015.21 1015.17 1015.09 1014.99 1014.90 1014.84 1014.83 1014.84 1014.88 1014.92 1014.92 1014.87 1014.77 1014.61 1014.41 1014.18 1013.95 1013.73 1013.54 1013.39 1013.29 1013.23 1013.21 1013.24 1013.30 1013.40 1013.52 1013.65 1013.79 1013.92 1014.05 1014.16 1014.27 1014.38 1014.52 1014.69 1014.91 1015.18 1015.50 1015.88 1016.29 1016.72
1014.76 1014.77 1014.73 1014.67 1014.60 1014.55 1014.54 1014.56 1014.62 1014.69 1014.74 1014.76 1014.72 1014.60 1014.41 1014.16 1013.87 1013.57 1013.29 1013.05 1012.87 1012.75 1012.69 1012.69 1012.74 1012.83 1012.95 1013.09 1013.22 1013.35 1013.47 1013.58 1013.68 1013.77 1013.87 1013.99 1014.15 1014.35 1014.61 1014.93 1015.31 1015.73 1016.19
1014.29 1014.30 1014.28 1014.25 1014.22 1014.22 1014.24 1014.31 1014.39 1014.48 1014.55 1014.57 1014.52 1014.39 1014.17 1013.88 1013.54 1013.19 1012.86 1012.57 1012.35 1012.21 1012.14 1012.14 1012.20 1012.31 1012.44 1012.58 1012.72 1012.85 1012.97 1013.07 1013.16 1013.25 1013.35 1013.46 1013.61 1013.79 1014.04 1014.34 1014.72 1015.15 1015.64
1013.85 1013.87 1013.88 1013.88 1013.89 1013.92 1013.98 1014.06 1014.15 1014.24 1014.30 1014.31 1014.24 1014.09 1013.84 1013.53 1013.17 1012.79 1012.42 1012.10 1011.85 1011.68 1011.59 1011.57 1011.62 1011.72 1011.85 1011.99 1012.13 1012.26 1012.39 1012.50 1012.60 1012.69 1012.79 1012.90 1013.04 1013.21 1013.44 1013.73 1014.09 1014.54 1015.05
1013.49 1013.53 1013.56 1013.60 1013.63 1013.68 1013.74 1013.81 1013.88 1013.94 1013.97 1013.95 1013.85 1013.68 1013.43 1013.12 1012.75 1012.37 1011.99 1011.66 1011.39 1011.19 1011.07 1011.02 1011.04 1011.11 1011.22 1011.34 1011.48 1011.61 1011.74 1011.87 1011.98 1012.09 1012.19 1012.30 1012.43 1012.59 1012.79 1013.07 1013.43 1013.88 1014.42
1013.26 1013.32 1013.38 1013.43 1013.47 1013.51 1013.55 1013.58 1013.60 1013.60 1013.58 1013.51 1013.38 1013.20 1012.96 1012.66 1012.32 1011.96 1011.61 1011.28 1011.00 1010.78 1010.62 1010.53 1010.50 1010.52 1010.59 1010.68 1010.80 1010.93 1011.07 1011.20 1011.33 1011.45 1011.56 1011.66 1011.77 1011.91 1012.10 1012.36 1012.72 1013.18 1013.74
1013.19 1013.27 1013.33 1013.38 1013.41 1013.42 1013.41 1013.37 1013.32 1013.24 1013.14 1013.02 1012.87 1012.69 1012.46 1012.20 1011.92 1011.61 1011.29 1010.99 1010.71 1010.47 1010.28 1010.13 1010.04 1010.01 1010.02 1010.07 1010.16 1010.28 1010.41 1010.55 1010.68 1010.80 1010.90 1010.98 1011.08 1011.19 1011.36 1011.61 1011.96 1012.44 1013.04
1013.26 1013.34 1013.40 1013.43 1013.43 1013.39 1013.31 1013.19 1013.05 1012.89 1012.73 1012.55 1012.38 1012.20 1012.01 1011.80 1011.58 1011.34 1011.08 1010.82 1010.55 1010.30 1010.06 1009.87 1009.71 1009.60 1009.55 1009.55 1009.60 1009.70 1009.81 1009.94 1010.06 1010.16 1010.24 1010.30 1010.36 1010.44 1010.59 1010.82 1011.18 1011.68 1012.32
1013.43 1013.50 1013.54 1013.54 1013.50 1013.39 1013.24 1013.05 1012.82 1012.59 1012.35 1012.14 1011.95 1011.79 1011.64 1011.50 1011.35 1011.18 1010.98 1010.75 1010.50 1010.23 1009.97 1009.71 1009.50 1009.33 1009.21 1009.16 1009.17 1009.23 1009.32 1009.42 1009.51 1009.58 1009.62 1009.64 1009.66 1009.70 1009.82 1010.04 1010.41 1010.93 1011.61
1013.62 1013.67 1013.69 1013.65 1013.56 1013.40 1013.18 1012.92 1012.63 1012.33 1012.06 1011.82 1011.63 1011.49 1011.38 1011.29 1011.21 1011.10 1010.95 1010.76 1010.52 1010.24 1009.95 1009.65 1009.38 1009.16 1008.99 1008.90 1008.86 1008.88 1008.94 1009.01 1009.06 1009.09 1009.08 1009.05 1009.02 1009.02 1009.11 1009.32 1009.69 1010.24 1010.97
1013.77 1013.80 1013.79 1013.71 1013.58 1013.37 1013.10 1012.79 1012.46 1012.13 1011.83 1011.58 1011.40 1011.29 1011.22 1011.17 1011.13 1011.07 1010.96 1010.79 1010.56 1010.27 1009.96 1009.63 1009.32 1009.06 1008.86 1008.73 1008.67 1008.66 1008.68 1008.71 1008.72 1008.70 1008.64 1008.56 1008.48 1008.45 1008.51 1008.71 1009.09 1009.67 1010.43
1013.83 1013.84 1013.80 1013.69 1013.52 1013.28 1012.99 1012.65 1012.30 1011.96 1011.67 1011.43 1011.27 1011.17 1011.13 1011.11 1011.10 1011.06 1010.96 1010.79 1010.56 1010.27 1009.94 1009.60 1009.28 1009.00 1008.78 1008.63 1008.55 1008.51 1008.51 1008.51 1008.48 1008.42 1008.32 1008.20 1008.09 1008.03 1008.08 1008.28 1008.67 1009.26 1010.04
1013.79 1013.78 1013.71 1013.58 1013.39 1013.13 1012.83 1012.50 1012.16 1011.84 1011.56 1011.35 1011.21 1011.13 1011.10 1011.09 1011.08 1011.03 1010.93 1010.75 1010.51 1010.21 1009.88 1009.53 1009.20 1008.92 1008.71 1008.56 1008.47 1008.43 1008.41 1008.39 1008.34 1008.26 1008.14 1008.00 1007.87 1007.81 1007.86 1008.07 1008.46 1009.06 1009.85
1013.67 1013.64 1013.56 1013.41 1013.21 1012.96 1012.67 1012.36 1012.05 1011.76 1011.52 1011.34 1011.21 1011.14 1011.11 1011.10 1011.06 1010.99 1010.87 1010.67 1010.41 1010.10 1009.76 1009.42 1009.11 1008.84 1008.63 1008.49 1008.41 1008.37 1008.35 1008.33 1008.28 1008.19 1008.08 1007.95 1007.84 1007.80 1007.87 1008.10 1008.50 1009.09 1009.86
1013.51 1013.48 1013.39 1013.24 1013.05 1012.82 1012.56 1012.28 1012.01 1011.77 1011.57 1011.41 1011.31 1011.24 1011.19 1011.14 1011.08 1010.97 1010.81 1010.58 1010.30 1009.98 1009.64 1009.31 1009.00 1008.75 1008.56 1008.43 1008.36 1008.33 1008.32 1008.31 1008.27 1008.21 1008.13 1008.04 1007.99 1007.99 1008.10 1008.35 1008.77 1009.35 1010.08
1013.38 1013.36 1013.27 1013.14 1012.96 1012.76 1012.54 1012.31 1012.09 1011.89 1011.73 1011.60 1011.50 1011.43 1011.36 1011.27 1011.16 1011.01 1010.80 1010.54 1010.23 1009.90 1009.56 1009.23 1008.93 1008.69 1008.51 1008.39 1008.32 1008.30 1008.30 1008.30 1008.30 1008.28 1008.26 1008.24 1008.26 1008.33 1008.50 1008.79 1009.21 1009.77 1010.45
1013.33 1013.32 1013.25 1013.15 1013.00 1012.83 1012.66 1012.48 1012.31 1012.15 1012.02 1011.91 1011.82 1011.73 1011.63 1011.51 1011.35 1011.15 1010.90 1010.60 1010.27 1009.92 1009.57 1009.24 1008.95 1008.70 1008.52 1008.39 1008.32 1008.29 1008.29 1008.31 1008.35 1008.38 1008.43 1008.50 1008.60 1008.76 1008.99 1009.32 1009.75 1010.28 1010.90
1013.38 1013.40 1013.36 1013.29 1013.18 1013.06 1012.93 1012.80 1012.68 1012.56 1012.46 1012.36 1012.26 1012.15 1012.02 1011.86 1011.66 1011.41 1011.12 1010.80 1010.45 1010.08 1009.72 1009.38 1009.07 1008.81 1008.61 1008.45 1008.36 1008.31 1008.31 1008.34 1008.40 1008.49 1008.60 1008.75 1008.94 1009.18 1009.48 1009.85 1010.28 1010.78 1011.32
1013.53 1013.58 1013.58 1013.55 1013.50 1013.42 1013.34 1013.26 1013.17 1013.09 1013.00 1012.91 1012.80 1012.67 1012.51 1012.31 1012.08 1011.79 1011.48 1011.13 1010.76 1010.38 1010.01 1009.66 1009.33 1009.04 1008.79 1008.60 1008.46 1008.38 1008.35 1008.38 1008.45 1008.58 1008.75 1008.97 1009.23 1009.53 1009.88 1010.27 1010.70 1011.15 1011.63
1013.74 1013.83 1013.88 1013.90 1013.89 1013.87 1013.84 1013.80 1013.74 1013.68 1013.61 1013.52 1013.40 1013.25 1013.06 1012.83 1012.56 1012.26 1011.92 1011.56 1011.18 1010.80 1010.42 1010.04 1009.69 1009.36 1009.08 1008.83 1008.64 1008.50 1008.44 1008.44 1008.51 1008.65 1008.85 1009.11 1009.41 1009.76 1010.13 1010.52 1010.93 1011.33 1011.73
1013.97 1014.10 1014.20 1014.27 1014.32 1014.35 1014.36 1014.36 1014.33 1014.29 1014.22 1014.12 1013.99 1013.82 1013.61 1013.36 1013.07 1012.75 1012.40 1012.04 1011.66 1011.28 1010.89 1010.51 1010.13 1009.77 1009.44 1009.14 1008.89 1008.70 1008.58 1008.54 1008.58 1008.71 1008.91 1009.18 1009.50 1009.84 1010.21 1010.58 1010.94 1011.28 1011.61
1014.19 1014.36 1014.51 1014.63 1014.72 1014.80 1014.85 1014.88 1014.88 1014.85 1014.78 1014.68 1014.53 1014.34 1014.11 1013.84 1013.54 1013.21 1012.87 1012.51 1012.14 1011.77 1011.39 1011.00 1010.61 1010.23 1009.86 1009.51 1009.21 1008.96 1008.78 1008.69 1008.69 1008.78 1008.96 1009.20 1009.49 1009.80 1010.13 1010.45 1010.74 1011.02 1011.27
1014.38 1014.58 1014.76 1014.92 1015.06 1015.17 1015.26 1015.31 1015.33 1015.31 1015.25 1015.14 1014.98 1014.78 1014.53 1014.25 1013.94 1013.62 1013.28 1012.94 1012.59 1012.23 1011.87 1011.49 1011.11 1010.71 1010.32 1009.94 1009.60 1009.30 1009.07 1008.92 1008.87 1008.90 1009.02 1009.20 1009.44 1009.69 1009.95 1010.19 1010.41 1010.60 1010.77
1014.53 1014.76 1014.97 1015.16 1015.32 1015.47 1015.58 1015.65 1015.69 1015.68 1015.62 1015.50 1015.34 1015.12 1014.87 1014.58 1014.28 1013.96 1013.63 1013.31 1012.98 1012.66 1012.32 1011.97 1011.60 1011.22 1010.82 1010.43 1010.06 1009.72 1009.45 1009.24 1009.12 1009.09 1009.14 1009.25 1009.40 1009.57 1009.74 1009.90 1010.03 1010.14 1010.23
1014.67 1014.90 1015.13 1015.34 1015.52 1015.69 1015.82 1015.91 1015.96 1015.96 1015.90 1015.79 1015.62 1015.40 1015.15 1014.86 1014.56 1014.25 1013.95 1013.64 1013.35 1013.05 1012.75 1012.43 1012.10 1011.74 1011.35 1010.97 1010.58 1010.22 1009.91 1009.66 1009.48 1009.37 1009.34 1009.36 1009.42 1009.50 1009.59 1009.65 1009.70 1009.73 1009.75
Thickness
5769 5768 5767 5766 5765 5764 5763 5763 5761 5760 5759 5757 5756 5755 5755 5754 5754 5755 5755 5757 5757 5757 5757 5758 5757 5755 5753 5751 5749 5747 5744 5742 5740 5738 5736 5733 5731 5729 5726 5723 5719 5716 5713
5768 5767 5765 5764 5764 5763 5763 5762 5761 5759 5758 5757 5756 5755 5755 5754 5754 5754 5755 5755 5756 5757 5757 5757 5756 5755 5753 5751 5749 5747 5745 5743 5741 5738 5736 5735 5733 5730 5728 5725 5721 5717 5713
5768 5766 5764 5763 5763 5763 5761 5760 5759 5758 5756 5755 5755 5755 5754 5754 5754 5754 5754 5754 5755 5756 5756 5756 5756 5754 5753 5751 5749 5748 5746 5744 5741 5739 5737 5735 5733 5731 5729 5726 5723 5718 5714
5766 5765 5763 5763 5763 5761 5759 5757 5756 5754 5753 5752 5752 5753 5753 5753 5753 5753 5753 5753 5753 5754 5755 5755 5754 5753 5752 5750 5749 5747 5746 5744 5742 5740 5738 5736 5734 5732 5730 5727 5724 5720 5715
5764 5762 5761 5761 5760 5758 5756 5755 5754 5751 5750 5749 5750 5750 5751 5751 5752 5752 5752 5752 5752 5752 5753 5753 5752 5751 5750 5749 5748 5747 5746 5744 5742 5740 5738 5736 5735 5733 5731 5728 5725 5721 5715
5760 5758 5757 5756 5755 5753 5751 5750 5748 5748 5746 5745 5746 5747 5748 5749 5750 5750 5750 5751 5751 5750 5750 5750 5750 5749 5748 5748 5747 5746 5745 5744 5743 5741 5739 5737 5735 5733 5731 5729 5726 5722 5716
5753 5752 5751 5749 5749 5747 5746 5744 5742 5741 5741 5739 5737 5739 5744 5746 5747 5747 5748 5748 5748 5748 5747 5747 5746 5746 5746 5746 5745 5744 5743 5743 5742 5741 5739 5738 5736 5734 5732 5730 5727 5722 5717
5745 5744 5743 5741 5741 5739 5739 5737 5735 5734 5735 5733 5729 5727 5729 5734 5739 5743 5743 5743 5743 5743 5743 5743 5742 5743 5743 5743 5743 5742 5741 5741 5741 5740 5739 5738 5737 5735 5733 5730 5727 5723 5717
5733 5733 5732 5733 5732 5732 5731 5731 5729 5727 5727 5728 5724 5719 5717 5721 5725 5732 5735 5736 5736 5736 5737 5737 5738 5739 5739 5739 5739 5739 5739 5739 5739 5739 5738 5737 5736 5735 5733 5731 5727 5723 5717
5722 5723 5724 5724 5724 5725 5725 5724 5724 5722 5720 5721 5720 5718 5716 5717 5713 5717 5723 5726 5727 5728 5729 5731 5733 5734 5735 5735 5735 5735 5736 5736 5736 5736 5736 5735 5735 5734 5732 5730 5728 5723 5717
5713 5714 5714 5715 5716 5717 5717 5717 5717 5716 5715 5714 5713 5712 5710 5708 5708 5705 5708 5713 5715 5719 5722 5724 5726 5727 5728 5729 5730 5730 5731 5731 5732 5732 5732 5732 5733 5732 5732 5730 5727 5723 5718
5705 5705 5706 5707 5708 5708 5708 5708 5708 5708 5707 5707 5706 5705 5703 5701 5700 5699 5699 5702 5703 5708 5712 5715 5717 5719 5721 5722 5723 5724 5724 5725 5726 5727 5728 5729 5730 5731 5731 5729 5726 5723 5717
5696 5697 5698 5698 5698 5698 5698 5698 5698 5698 5698 5697 5697 5697 5696 5695 5695 5694 5693 5694 5694 5698 5701 5705 5708 5710 5713 5714 5714 5716 5717 5717 5719 5720 5722 5725 5727 5728 5729 5727 5725 5721 5715
5689 5689 5689 5689 5689 5689 5689 5688 5688 5688 5688 5688 5688 5688 5688 5688 5688 5687 5686 5685 5684 5686 5689 5693 5697 5700 5703 5704 5705 5706 5707 5709 5711 5713 5715 5719 5722 5724 5726 5725 5722 5717 5710
5680 5680 5680 5680 5680 5680 5680 5680 5679 5678 5679 5679 5679 5679 5678 5678 5678 5679 5679 5678 5675 5674 5677 5682 5685 5691 5693 5695 5696 5697 5698 5699 5702 5704 5707 5711 5715 5718 5719 5719 5716 5710 5703
5670 5670 5671 5671 5671 5672 5671 5671 5671 5672 5672 5672 5672 5671 5670 5669 5669 5669 5669 5668 5668 5666 5667 5672 5676 5681 5684 5687 5687 5688 5688 5689 5691 5694 5698 5701 5705 5708 5709 5709 5706 5700 5693
5662 5662 5662 5662 5663 5663 5663 5663 5663 5664 5664 5664 5664 5663 5661 5660 5659 5659 5659 5659 5659 5659 5659 5664 5668 5673 5676 5678 5679 5679 5678 5679 5681 5684 5687 5690 5693 5696 5697 5696 5694 5689 5683
5653 5653 5653 5652 5653 5653 5653 5654 5654 5655 5654 5654 5653 5653 5652 5652 5650 5650 5650 5650 5650 5651 5652 5655 5660 5664 5667 5670 5670 5670 5670 5671 5672 5674 5676 5679 5681 5683 5684 5683 5681 5678 5673
5643 5643 5642 5642 5642 5643 5644 5644 5644 5643 5642 5641 5641 5640 5641 5641 5641 5642 5642 5642 5643 5645 5646 5648 5650 5654 5658 5660 5661 5662 5663 5664 5665 5666 5667 5668 5670 5671 5672 5671 5669 5667 5664
5633 5632 5631 5631 5631 5632 5633 5633 5632 5631 5629 5629 5628 5628 5630 5631 5631 5632 5633 5635 5637 5639 5641 5642 5643 5646 5649 5652 5653 5654 5655 5656 5658 5659 5659 5659 5660 5661 5661 5660 5659 5658 5656
5622 5621 5621 5621 5621 5622 5622 5621 5620 5618 5617 5616 5616 5617 5619 5620 5620 5621 5623 5625 5628 5630 5633 5635 5636 5638 5640 5643 5645 5648 5649 5650 5651 5653 5652 5652 5652 5652 5652 5651 5651 5650 5649
5611 5611 5611 5611 5611 5610 5610 5610 5608 5606 5605 5604 5603 5604 5607 5607 5609 5610 5612 5613 5616 5618 5620 5623 5625 5627 5630 5633 5637 5640 5643 5644 5645 5647 5646 5645 5646 5645 5646 5646 5646 5645 5644
5602 5601 5600 5600 5599 5598 5598 5597 5596 5595 5593 5591 5590 5591 5593 5594 5596 5598 5600 5603 5604 5605 5607 5609 5612 5614 5618 5622 5627 5632 5635 5637 5639 5641 5642 5640 5639 5639 5641 5641 5642 5642 5641
5594 5592 5592 5591 5590 5589 5588 5587 5585 5584 5582 5580 5579 5579 5580 5581 5583 5585 5588 5590 5592 5593 5594 5597 5599 5602 5607 5612 5617 5621 5625 5628 5631 5632 5634 5633 5633 5633 5635 5636 5637 5638 5638
5587 5585 5583 5583 5581 5579 5579 5578 5577 5575 5572 5569 5569 5569 5570 5570 5571 5574 5577 5578 5579 5580 5582 5584 5587 5590 5595 5599 5605 5611 5614 5616 5617 5619 5622 5623 5623 5625 5628 5630 5632 5633 5634
5581 5579 5576 5574 5573 5572 5571 5570 5569 5567 5564 5562 5561 5561 5561 5561 5562 5564 5565 5566 5566 5566 5569 5573 5576 5579 5582 5585 5589 5593 5597 5601 5603 5605 5607 5610 5612 5615 5618 5622 5624 5626 5628